Date String (YYYY-MM-DD hh:mm:ss) UTC,Instrument flags,absolute air pressure of the measurement (hPa),sample flow rate (lpm),inlet stack bypass flow (lpm),air temperature of the measurement (°C),ambient temperature measured by the external sensor (°C),aerosol sample conditioner tube jacket temperature (°C),OPC LED temperature (°C),internal box temperature (°C),relative humidity of the measurement (%),span deviation,mass concentration of particles derived from Lorenz-Mie calculation of OPC scattering (μg/m³),mass concentration of particles derived from Lorenz-Mie calculation of OPC scattering (μg/m³),mass concentration of particles derived from Lorenz-Mie calculation of OPC scattering (μg/m³)
DateTimeUTC,F1_M11,P_M11,Q1_M11,Q2_M11,T1_M11,T2_M11,T3_M11,T4_M11,T5_M11,U1_M11,ZSPAN_M11,X0_M11,X2_M11,X1_M11
2024-02-27 14:00:00,SystemResetWarning,0810.7,5.01,000.00,019.9,019.1,000.0,028.2,021.5,23.6,0000.0,0001.31,0000.39,0000.13
2024-02-27 14:01:00,SystemResetWarning,0810.7,5.00,000.00,019.8,019.1,000.0,028.2,021.5,23.6,0000.0,0001.00,0000.39,0000.13
2024-02-27 14:02:00,SystemResetWarning,0810.7,5.00,000.00,019.8,019.1,000.0,028.2,021.5,23.7,0000.0,0001.01,0000.42,0000.13
2024-02-27 14:03:00,SystemResetWarning,0810.8,4.99,000.00,019.8,019.1,000.0,028.2,021.5,23.7,0000.0,0001.11,0000.45,0000.13
2024-02-27 14:04:00,SystemResetWarning,0810.8,5.00,000.00,019.8,019.1,000.0,028.2,021.5,23.8,0000.0,0001.09,0000.45,0000.13
2024-02-27 14:05:00,SystemResetWarning,0810.8,5.01,000.00,019.8,019.1,000.0,028.2,021.5,24.0,0000.0,0000.94,0000.42,0000.12
2024-02-27 14:06:00,SystemResetWarning,0810.8,5.01,000.00,019.8,019.1,000.0,028.2,021.5,24.0,0000.0,0000.90,0000.40,0000.12
2024-02-27 14:07:00,SystemResetWarning,0810.8,5.01,000.00,019.8,019.0,000.0,028.2,021.5,24.0,0000.0,0000.82,0000.36,0000.12
2024-02-27 14:08:00,SystemResetWarning,0810.9,5.00,000.00,019.8,019.0,000.0,028.2,021.5,24.0,0000.0,0000.76,0000.35,0000.11
2024-02-27 14:09:00,SystemResetWarning,0810.9,5.00,000.00,019.8,019.0,000.0,028.2,021.5,24.0,0000.0,0000.77,0000.35,0000.11
2024-02-27 14:10:00,SystemResetWarning,0810.9,4.99,000.00,019.8,019.0,000.0,028.2,021.5,24.1,0000.0,0000.86,0000.36,0000.12
2024-02-27 14:11:00,SystemResetWarning,0810.9,4.99,000.00,019.8,019.0,000.0,028.2,021.5,24.2,0000.0,0000.81,0000.34,0000.12
2024-02-27 14:12:00,SystemResetWarning,0810.9,5.01,000.00,019.8,019.0,000.0,028.2,021.5,24.1,0000.0,0000.78,0000.33,0000.12
2024-02-27 14:13:00,SystemResetWarning,0810.8,5.00,000.00,019.8,019.0,000.0,028.2,021.5,24.0,0000.0,0000.77,0000.33,0000.11
2024-02-27 14:14:00,SystemResetWarning,0810.8,5.01,000.00,019.8,019.0,000.0,028.2,021.5,24.0,0000.0,0000.74,0000.32,0000.12
2024-02-27 14:15:00,SystemResetWarning,0810.8,4.99,000.00,019.8,019.0,000.0,028.2,021.5,24.0,0000.0,0000.76,0000.32,0000.12
2024-02-27 14:16:00,SystemResetWarning,0810.8,4.99,000.00,019.8,019.0,000.0,028.2,021.4,23.9,0000.0,0000.87,0000.37,0000.12
2024-02-27 14:17:00,SystemResetWarning,0810.8,5.00,000.00,019.8,019.0,000.0,028.2,021.4,23.9,0000.0,0001.01,0000.43,0000.14
2024-02-27 14:18:00,SystemResetWarning,0811.0,5.00,000.00,019.8,019.0,000.0,028.2,021.4,24.0,0000.0,0001.06,0000.45,0000.14
2024-02-27 14:19:00,SystemResetWarning,0811.2,5.00,000.00,019.8,019.0,000.0,028.2,021.5,24.0,0000.0,0001.06,0000.45,0000.14
2024-02-27 14:20:00,SystemResetWarning,0811.5,5.00,000.00,019.8,019.0,000.0,028.2,021.5,24.0,0000.0,0001.04,0000.44,0000.15
2024-02-27 14:21:00,SystemResetWarning,0811.6,5.00,000.00,019.8,019.1,000.0,028.2,021.5,24.1,0000.0,0000.90,0000.41,0000.15
2024-02-27 14:22:00,SystemResetWarning,0811.6,5.00,000.00,019.8,019.1,000.0,028.2,021.5,24.4,0000.0,0000.95,0000.43,0000.15
2024-02-27 14:23:00,SystemResetWarning,0811.6,5.01,000.00,019.8,019.1,000.0,028.2,021.5,24.6,0000.0,0000.99,0000.44,0000.16
2024-02-27 14:24:00,SystemResetWarning,0811.8,4.99,000.00,019.8,019.0,000.0,028.2,021.5,24.5,0000.0,0000.97,0000.45,0000.17
2024-02-27 14:25:00,SystemResetWarning,0811.8,4.99,000.00,019.8,019.0,000.0,028.2,021.5,24.3,0000.0,0001.16,0000.45,0000.17
2024-02-27 14:26:00,SystemResetWarning,0811.9,4.99,000.00,019.8,019.0,000.0,028.2,021.5,23.9,0000.0,0001.51,0000.45,0000.17
2024-02-27 14:27:00,SystemResetWarning,0812.1,5.00,000.00,019.8,019.0,000.0,028.2,021.5,23.4,0000.0,0001.45,0000.42,0000.17
2024-02-27 14:28:00,SystemResetWarning,0812.1,5.01,000.00,019.8,019.0,000.0,028.2,021.5,23.3,0000.0,0001.48,0000.37,0000.17
2024-02-27 14:29:00,SystemResetWarning,0812.3,4.99,000.00,019.8,019.0,000.0,028.2,021.5,23.6,0000.0,0002.02,0000.36,0000.16
2024-02-27 14:30:00,SystemResetWarning,0812.4,4.99,000.00,019.7,019.0,000.0,028.2,021.5,23.8,0000.0,0002.07,0000.40,0000.17
2024-02-27 14:31:00,SystemResetWarning,0812.5,4.99,000.00,019.8,019.0,000.0,028.2,021.5,24.0,0000.0,0002.09,0000.40,0000.16
2024-02-27 14:32:00,SystemResetWarning,0812.6,5.00,000.00,019.8,019.0,000.0,028.2,021.5,24.2,0000.0,0002.11,0000.41,0000.16
2024-02-27 14:33:00,SystemResetWarning,0812.6,5.01,000.00,019.7,019.0,000.0,028.2,021.5,24.3,0000.0,0002.10,0000.41,0000.16
2024-02-27 14:34:00,SystemResetWarning,0812.6,5.01,000.00,019.7,019.0,000.0,028.2,021.5,24.4,0000.0,0002.13,0000.45,0000.16
2024-02-27 14:35:00,SystemResetWarning,0812.7,5.00,000.00,019.7,019.0,000.0,028.2,021.5,24.3,0000.0,0002.17,0000.46,0000.17
2024-02-27 14:36:00,SystemResetWarning,0812.7,4.99,000.00,019.7,019.0,000.0,028.2,021.5,24.2,0000.0,0002.23,0000.50,0000.17
2024-02-27 14:37:00,SystemResetWarning,0812.7,4.99,000.00,019.7,019.0,000.0,028.2,021.5,24.2,0000.0,0001.81,0000.57,0000.20
2024-02-27 14:38:00,SystemResetWarning,0812.8,5.00,000.00,019.7,019.0,000.0,028.2,021.5,24.2,0000.0,0001.88,0000.60,0000.22
2024-02-27 14:39:00,SystemResetWarning,0812.8,5.01,000.00,019.7,019.0,000.0,028.2,021.5,24.1,0000.0,0002.00,0000.64,0000.23
2024-02-27 14:40:00,SystemResetWarning,0812.8,5.01,000.00,019.7,019.0,000.0,028.2,021.5,24.0,0000.0,0001.54,0000.66,0000.24
2024-02-27 14:41:00,SystemResetWarning,0812.8,5.00,000.00,019.7,019.0,000.0,028.2,021.5,23.4,0000.0,0001.75,0000.67,0000.25
2024-02-27 14:42:00,SystemResetWarning,0812.8,5.00,000.00,019.7,019.0,000.0,028.2,021.5,22.8,0000.0,0001.88,0000.72,0000.29
2024-02-27 14:43:00,SystemResetWarning,0812.8,5.00,000.00,019.7,018.9,000.0,028.2,021.5,22.4,0000.0,0002.07,0000.78,0000.32
2024-02-27 14:44:00,SystemResetWarning,0812.8,5.00,000.00,019.7,018.9,000.0,028.2,021.4,22.2,0000.0,0003.02,0000.86,0000.37
2024-02-27 14:45:00,SystemResetWarning,0812.9,5.00,000.00,019.7,018.9,000.0,028.2,021.4,22.1,0000.0,0003.26,0000.93,0000.43
2024-02-27 14:46:00,SystemResetWarning,0812.9,4.99,000.00,019.7,018.9,000.0,028.2,021.4,22.0,0000.0,0003.65,0001.00,0000.50
2024-02-27 14:47:00,SystemResetWarning,0812.9,4.99,000.00,019.7,018.9,000.0,028.2,021.4,21.9,0000.0,0004.01,0001.06,0000.56
2024-02-27 14:48:00,SystemResetWarning,0812.9,5.01,000.00,019.7,018.9,000.0,028.2,021.4,21.8,0000.0,0004.86,0001.08,0000.60
2024-02-27 14:49:00,SystemResetWarning,0812.9,5.01,000.00,019.6,018.9,000.0,028.2,021.4,21.8,0000.0,0005.33,0001.11,0000.65
2024-02-27 14:50:00,SystemResetWarning,0812.9,4.99,000.00,019.6,018.9,000.0,028.2,021.4,21.8,0000.0,0005.56,0001.24,0000.70
2024-02-27 14:51:00,SystemResetWarning,0812.9,5.00,000.00,019.6,018.8,000.0,028.2,021.4,21.7,0000.0,0006.89,0001.33,0000.77
2024-02-27 14:52:00,SystemResetWarning,0812.9,5.00,000.00,019.6,018.8,000.0,028.2,021.4,21.7,0000.0,0009.09,0001.48,0000.84
2024-02-27 14:53:00,SystemResetWarning,0813.0,5.00,000.00,019.6,018.8,000.0,028.2,021.4,21.6,0000.0,0012.34,0001.75,0001.01
2024-02-27 14:54:00,SystemResetWarning,0813.0,4.99,000.00,019.6,018.8,000.0,028.2,021.4,21.6,0000.0,0013.66,0002.13,0001.27
2024-02-27 14:55:00,SystemResetWarning,0813.1,4.99,000.00,019.6,018.8,000.0,028.2,021.3,21.6,0000.0,0015.37,0002.52,0001.52
2024-02-27 14:56:00,SystemResetWarning,0813.1,5.00,000.00,019.6,018.8,000.0,028.2,021.3,21.5,0000.0,0018.43,0002.87,0001.73
2024-02-27 14:57:00,SystemResetWarning,0813.2,5.00,000.00,019.6,018.8,000.0,028.2,021.3,21.5,0000.0,0019.21,0003.13,0001.96
2024-02-27 14:58:00,SystemResetWarning,0813.2,5.01,000.00,019.6,018.8,000.0,028.2,021.3,21.4,0000.0,0021.04,0003.30,0002.18
2024-02-27 14:59:00,SystemResetWarning,0813.2,5.01,000.00,019.6,018.8,000.0,028.2,021.3,21.4,0000.0,0021.63,0003.47,0002.40
